Previsão horária em Almere

Hoje, 18 Janeiro, Segunda-feira

Tempo Temperatura Precipitação Vento Pressão Humidade
00:00 +1°C° 0 mm 3 m/s 766 mmHg 93%
01:00 +2°C° 0 mm 3 m/s 766 mmHg 93%
02:00 +1°C° 0 mm 4 m/s 766 mmHg 94%
03:00 +1°C° 0 mm 4 m/s 766 mmHg 94%
04:00 +1°C° 0 mm 4 m/s 766 mmHg 93%
05:00 +1°C° 0 mm 4 m/s 765 mmHg 93%
06:00 +3°C° 0 mm 4 m/s 765 mmHg 92%
07:00 +3°C° 0 mm 4 m/s 765 mmHg 91%
08:00 +2°C° 0 mm 5 m/s 765 mmHg 90%
09:00 +2°C° 0 mm 5 m/s 765 mmHg 90%
10:00 +3°C° 0 mm 5 m/s 765 mmHg 87%
11:00 +4°C° 0 mm 6 m/s 764 mmHg 84%
12:00 +4°C° 0 mm 6 m/s 764 mmHg 82%
13:00 +4°C° 0.1 mm 6 m/s 764 mmHg 82%
14:00 +4°C° 0.1 mm 6 m/s 763 mmHg 83%
15:00 +5°C° 0.1 mm 5 m/s 763 mmHg 83%
16:00 +5°C° 0.1 mm 5 m/s 763 mmHg 83%
17:00 +5°C° 0.1 mm 5 m/s 763 mmHg 84%
18:00 +3°C° 0.1 mm 5 m/s 762 mmHg 84%
19:00 +3°C° 0.1 mm 5 m/s 762 mmHg 85%
20:00 +3°C° 0.1 mm 5 m/s 761 mmHg 86%
21:00 +3°C° 0.1 mm 5 m/s 761 mmHg 87%
22:00 +3°C° 0.4 mm 6 m/s 760 mmHg 87%
23:00 +3°C° 0.4 mm 7 m/s 760 mmHg 87%

Amanhã, 19 Janeiro, Terça-feira

Tempo Temperatura Precipitação Vento Pressão Humidade
00:00 +2°C° 0.4 mm 8 m/s 759 mmHg 87%
01:00 +2°C° 0.8 mm 8 m/s 758 mmHg 88%
02:00 +2°C° 0.8 mm 8 m/s 757 mmHg 89%
03:00 +2°C° 0.8 mm 8 m/s 755 mmHg 91%
04:00 +4°C° 1.6 mm 8 m/s 754 mmHg 91%
05:00 +4°C° 1.6 mm 8 m/s 753 mmHg 91%
06:00 +5°C° 1.6 mm 8 m/s 752 mmHg 92%
07:00 +6°C° 2 mm 9 m/s 751 mmHg 92%
08:00 +7°C° 2 mm 9 m/s 751 mmHg 92%
09:00 +8°C° 2 mm 10 m/s 750 mmHg 92%
10:00 +8°C° 0.8 mm 10 m/s 750 mmHg 88%
11:00 +8°C° 0.8 mm 10 m/s 751 mmHg 84%
12:00 +9°C° 0.8 mm 11 m/s 751 mmHg 81%
13:00 +8°C° 0 mm 10 m/s 751 mmHg 81%
14:00 +8°C° 0 mm 10 m/s 751 mmHg 81%
15:00 +8°C° 0 mm 9 m/s 751 mmHg 82%
16:00 +8°C° 0.1 mm 9 m/s 751 mmHg 82%
17:00 +8°C° 0.1 mm 10 m/s 750 mmHg 82%
18:00 +8°C° 0.1 mm 10 m/s 750 mmHg 82%
19:00 +8°C° 0.4 mm 10 m/s 750 mmHg 81%
20:00 +8°C° 0.4 mm 10 m/s 750 mmHg 80%
21:00 +8°C° 0.4 mm 11 m/s 749 mmHg 79%
22:00 +7°C° 0.2 mm 10 m/s 749 mmHg 79%
23:00 +7°C° 0.2 mm 10 m/s 749 mmHg 80%

Depois de amanhã, 20 Janeiro, Quarta-feira

Tempo Temperatura Precipitação Vento Pressão Humidade
00:00 +6°C° 0.2 mm 10 m/s 749 mmHg 80%
01:00 +6°C° 0.1 mm 10 m/s 748 mmHg 81%
02:00 +6°C° 0.1 mm 10 m/s 748 mmHg 81%
03:00 +7°C° 0.1 mm 10 m/s 747 mmHg 82%
04:00 +7°C° 0.1 mm 10 m/s 747 mmHg 82%
05:00 +7°C° 0.1 mm 10 m/s 746 mmHg 82%
06:00 +7°C° 0.1 mm 10 m/s 746 mmHg 82%
07:00 +6°C° 0.2 mm 10 m/s 746 mmHg 80%
08:00 +6°C° 0.2 mm 10 m/s 746 mmHg 77%
09:00 +6°C° 0.2 mm 10 m/s 746 mmHg 74%
10:00 +6°C° 0 mm 9 m/s 746 mmHg 73%
11:00 +6°C° 0 mm 9 m/s 746 mmHg 72%
12:00 +6°C° 0 mm 8 m/s 746 mmHg 71%
13:00 +6°C° 0.1 mm 8 m/s 745 mmHg 72%
14:00 +6°C° 0.1 mm 7 m/s 745 mmHg 73%
15:00 +6°C° 0.1 mm 7 m/s 744 mmHg 74%
16:00 +5°C° 0 mm 7 m/s 744 mmHg 71%
17:00 +5°C° 0 mm 8 m/s 744 mmHg 69%
18:00 +5°C° 0 mm 8 m/s 744 mmHg 67%
19:00 +5°C° 0 mm 8 m/s 743 mmHg 70%
20:00 +5°C° 0 mm 8 m/s 743 mmHg 72%
21:00 +6°C° 0 mm 8 m/s 743 mmHg 75%
22:00 +6°C° 0 mm 8 m/s 742 mmHg 74%
23:00 +6°C° 0 mm 9 m/s 741 mmHg 74%

21 Janeiro, Quinta-feira

Tempo Temperatura Precipitação Vento Pressão Humidade
00:00 +7°C° 0 mm 9 m/s 741 mmHg 73%
01:00 +7°C° 0 mm 9 m/s 740 mmHg 74%
02:00 +7°C° 0 mm 10 m/s 739 mmHg 74%
03:00 +7°C° 0 mm 11 m/s 738 mmHg 75%
04:00 +7°C° 0.4 mm 11 m/s 737 mmHg 75%
05:00 +7°C° 0.4 mm 12 m/s 737 mmHg 75%
06:00 +5°C° 0.4 mm 12 m/s 737 mmHg 75%
07:00 +6°C° 0.1 mm 11 m/s 738 mmHg 71%
08:00 +5°C° 0.1 mm 10 m/s 739 mmHg 67%
09:00 +3°C° 0.1 mm 9 m/s 740 mmHg 63%
10:00 +5°C° 0 mm 9 m/s 740 mmHg 63%
11:00 +5°C° 0 mm 10 m/s 741 mmHg 64%
12:00 +6°C° 0 mm 10 m/s 741 mmHg 65%
13:00 +6°C° 0.1 mm 10 m/s 741 mmHg 65%
14:00 +6°C° 0.1 mm 10 m/s 741 mmHg 66%
15:00 +5°C° 0.1 mm 10 m/s 740 mmHg 67%
16:00 +5°C° 0 mm 10 m/s 740 mmHg 68%
17:00 +5°C° 0 mm 10 m/s 741 mmHg 68%
18:00 +5°C° 0 mm 10 m/s 741 mmHg 69%
19:00 +3°C° 0 mm 9 m/s 741 mmHg 71%
20:00 +3°C° 0 mm 9 m/s 741 mmHg 72%
21:00 +3°C° 0 mm 9 m/s 741 mmHg 74%
22:00 +4°C° 0 mm 8 m/s 741 mmHg 75%
23:00 +4°C° 0 mm 7 m/s 741 mmHg 77%

22 Janeiro, Sexta-feira

Tempo Temperatura Precipitação Vento Pressão Humidade
00:00 +3°C° 0 mm 6 m/s 741 mmHg 79%
01:00 +3°C° 0 mm 6 m/s 741 mmHg 80%
02:00 +3°C° 0 mm 6 m/s 741 mmHg 80%
03:00 +3°C° 0 mm 5 m/s 740 mmHg 81%
04:00 +3°C° 0 mm 5 m/s 741 mmHg 81%
05:00 +2°C° 0 mm 5 m/s 741 mmHg 81%
06:00 +2°C° 0 mm 5 m/s 742 mmHg 82%
07:00 +2°C° 0 mm 6 m/s 742 mmHg 80%
08:00 +3°C° 0 mm 6 m/s 743 mmHg 79%
09:00 +3°C° 0 mm 6 m/s 743 mmHg 78%
10:00 +3°C° 0 mm 7 m/s 743 mmHg 75%
11:00 +4°C° 0 mm 7 m/s 744 mmHg 71%
12:00 +5°C° 0 mm 8 m/s 744 mmHg 68%
13:00 +5°C° 0 mm 7 m/s 744 mmHg 68%
14:00 +4°C° 0 mm 7 m/s 744 mmHg 68%
15:00 +4°C° 0 mm 6 m/s 744 mmHg 68%
16:00 +4°C° 0 mm 6 m/s 745 mmHg 70%
17:00 +3°C° 0 mm 5 m/s 745 mmHg 73%
18:00 +2°C° 0 mm 5 m/s 745 mmHg 76%
19:00 +2°C° 0 mm 5 m/s 746 mmHg 76%
20:00 +2°C° 0 mm 5 m/s 746 mmHg 77%
21:00 +2°C° 0 mm 6 m/s 747 mmHg 77%
22:00 +2°C° 0 mm 6 m/s 747 mmHg 77%
23:00 +2°C° 0 mm 6 m/s 748 mmHg 78%

23 Janeiro, Sábado

Tempo Temperatura Precipitação Vento Pressão Humidade
00:00 +2°C° 0 mm 6 m/s 748 mmHg 78%
01:00 +2°C° 0.1 mm 5 m/s 748 mmHg 79%
02:00 +3°C° 0.1 mm 4 m/s 749 mmHg 81%
03:00 +1°C° 0.1 mm 4 m/s 749 mmHg 82%
04:00 +1°C° 0.1 mm 4 m/s 750 mmHg 84%
05:00 +1°C° 0.1 mm 3 m/s 750 mmHg 87%
06:00 +1°C° 0.1 mm 3 m/s 751 mmHg 89%
07:00 +1°C° 0 mm 3 m/s 751 mmHg 88%
08:00 +1°C° 0 mm 3 m/s 752 mmHg 87%
09:00 +2°C° 0 mm 3 m/s 752 mmHg 86%
10:00 +3°C° 0 mm 3 m/s 752 mmHg 81%
11:00 +4°C° 0 mm 3 m/s 752 mmHg 75%
12:00 +5°C° 0 mm 3 m/s 753 mmHg 69%
13:00 +4°C° 0 mm 3 m/s 753 mmHg 70%
14:00 +4°C° 0 mm 3 m/s 753 mmHg 70%
15:00 +5°C° 0 mm 2 m/s 753 mmHg 71%
16:00 +4°C° 0 mm 2 m/s 752 mmHg 75%
17:00 +3°C° 0 mm 2 m/s 752 mmHg 79%
18:00 +3°C° 0 mm 1 m/s 752 mmHg 83%
19:00 +2°C° 0 mm 2 m/s 751 mmHg 86%
20:00 +1°C° 0 mm 2 m/s 751 mmHg 89%
21:00 0°C° 0 mm 3 m/s 750 mmHg 92%
22:00 0°C° 0 mm 3 m/s 750 mmHg 92%
23:00 0°C° 0 mm 3 m/s 749 mmHg 92%
Mostrar mais

Necessitamos do seu Consentimento

A Meteoprog e os seus Fornecedores de Serviços podem armazenar e aceder a dados pessoais como cookies, identificadores do dispositivo ou outras tecnologias semelhantes existentes no seu dispositivo e processar estes dados para personalizar conteúdos e anúncios, assim como funcionalidades nas redes sociais e análise de tráfego.

  • Armazenar e/ou aceder a informações no seu dispositivo

    Os cookies, identificadores do dispositivo ou outras informações podem ser armazenados ou acedidos no seu dispositivo, para os fins acima indicados.

  • Anúncios e conteúdos personalizados, medição de anúncios e conteúdos, dados sobre o público-alvo e desenvolvimento de produtos

    Os anúncios e os conteúdos podem ser personalizados com base num perfil. Podem ser adicionados dados adicionais para uma maior personalização dos anúncios e dos conteúdos. A eficácia dos anúncios e dos conteúdos pode ser medida. Podem ser obtidas informações sobre o público que visualizou os anúncios e os conteúdos. Estes dados podem ser usados para desenvolver ou melhorar sistemas, softwares ou a experiência do utilizador.

Ao clicar em "Eu concordo”, permitirá o uso de cookies, identificadores do dispositivo e web beacons mencionados ou outras tecnologias semelhantes. As configurações do navegador do seu dispositivo podem ser alteradas.

Para certos fins, podem ser invocados interesses legítimos ao invés de consentimento. Pode ler mais informação sobre este assunto na nossa Política de Privacidade e Cookies.